STARLINK-37466, 69038

Orbit data source: Space-Track

STARLINK-37466, 69038 is a payload satellite owned by SpaceX/Seattle (US) in SSO that was launched on Wed, 06 May 2026 UTC via an FALCON 9 launch vehicle from the Air Force Western Test Range (AFWTR). Payload-class satellites include a variety of spacecraft equipped with specific instruments for various scientific and technological missions. These include communications satellites like Starlink; space stations such as the ISS; scientific satellites like the Hubble; Earth observation satellites from companies like Planet Labs, Umbra, and HawkEye 360; GPS; miniature CubeSats for education and research; and military/defense satellites.

Loading next visibility...
Identifier
69038, 2026-101P
Orbit
SSO
Country
Flag of USUS
Related business
Manufacturer
SpaceX/Seattle
Mission
Operational spacecraft
Bus & Motor
STARLINK V2MO, Unknown motor
Mass
575 kg wet, ~530 kg dry
Launch date (UTC)
2026-05-06 (1 month ago)
Launch vehicle
FALCON 9
Launch site
Air Force Western Test Range (AFWTR)
Object type
Payload
Rocket body
Debris
Shape & HBR
Unknown shape, 14.5 m
Radar Cross Section
Large (>1 m²)

Expand to show TLE details & history
Last TLE update: 6 hours ago

TLE from 6 hours ago
0 STARLINK-37466
1 69038U 26101P   26168.83335647  .00013032  00000-0  40622-3 0  9994
2 69038  97.2845  23.7602 0000385  69.8012  69.5485 15.33374007  5987
Epoch: 2026-06-17T20:00Z
TLE epoch observation values (Epoch: 2026-06-17T20:00:01.999Z)
Latitude
40.33994°
Longitude
3.86416°
Altitude
471.532 km
Speed
7.634 km/s
True Right ascension
13h 59m 49s
True Declination
40° 09' 48"
Sunlit
Object was in daylight at epoch
Visualization orbit readout
Latitude
Unknown
Longitude
Unknown
Altitude
Unknown
Speed
Unknown
Apparent Right ascension
Unknown
Apparent Declination
Unknown
Sunlit
N/A
Visualization observer readout
Local Sidereal Time
12:59:17
Azimuth
Unknown
Elevation
Unknown
Doppler factor
Unknown
Orbital elements
Apogee altitude
462.961 km
Perigee altitude
462.434 km
Semi-major axis
6,840.834 km
Eccentricity
0.00004
Inclination
97.2845°
RAAN
23.7602°
Arg. of periapsis
69.8012°
True anomaly
69.55263°
Mean anomaly
69.5485°
Eccentric anomaly
69.55057°
Mean motion
3.83601 °/min
Orbital period
93.85 mins
BSTAR
0.00040622
Loading maneuver chart data...
Computing Atmospheric mass density...
Loading historical data...
Loading historical data...
Loading historical data...
Loading historical data...
Loading historical data...
Loading historical data...
Loading historical data...

Documentation

Showing up to 5 results
|